Sacramento, CA

8:34 PM PDT on May 28, 2017 (GMT -0700)
Sacramento Executive

Weather History for KSAC - October, 2013

Change the Weather History Date:

Tuesday, October 1, 2013

  Actual Average Record
Temperature  
Mean Temperature 66 °F -  
Max Temperature 78 °F 84 °F 102 °F (2001)
Min Temperature 53 °F 53 °F 41 °F (1950)
Degree Days  
Heating Degree Days 0    
Cooling Degree Days 1    
Growing Degree Days 15 (Base 50)    
Moisture  
Dew Point 46 °F    
Average Humidity 54    
Maximum Humidity 78    
Minimum Humidity 29    
Precipitation  
Precipitation 0.00 in 0.02 in 0.09 in (1986)
Month to date precipitation 0.00 0.02  
Year to date precipitation 4.50 12.26  
Since 1 July precipitation 0.59  
Sea Level Pressure  
Sea Level Pressure 29.94 in    
Wind  
Wind Speed 3 mph (SW)    
Max Wind Speed 10 mph    
Max Gust Speed 15 mph    
Visibility 10 miles    
Events      
T = Trace of Precipitation, MM = Missing Value Source: NWS Daily Summary

Daily Weather History Graph

Daily Weather History Graph

Search for Another Location

Airport or City:

Trip Planner

Search our weather history database for the weather conditions in past years. The results will help you decide how hot, cold, wet, or windy it might be!

Date:

Astronomy

Oct. 01, 2013 Rise Set
Actual Time 7:02 AM PDT 6:48 PM PDT
Civil Twilight 6:35 AM PDT 7:14 PM PDT
Nautical Twilight 6:04 AM PDT 7:45 PM PDT
Astronomical Twilight 5:33 AM PDT 8:16 PM PDT
Moon 3:43 AM PDT (10/1) 4:53 PM PDT (10/1)
Length of Visible Light 12h 38m
Length of Day
11h 46m
Waning Crescent, 11% of the Moon is Illuminated
Oct 1
Waning Crescent
Oct 4
New
Oct 11
First Quarter
Oct 18
Full
Oct 26
Last Quarter

Hourly Weather History & Observations

Time (PDT) Temp. Dew Point Humidity Pressure Visibility Wind Dir Wind Speed Gust Speed Precip Events Conditions
12:53 AM 60.1 °F 53.1 °F 78% 29.94 in 10.0 mi Calm Calm - N/A   Clear
1:53 AM 57.0 °F 46.9 °F 69% 29.95 in 10.0 mi South 3.5 mph - N/A   Clear
2:53 AM 57.0 °F 45.0 °F 64% 29.95 in 10.0 mi South 3.5 mph - N/A   Clear
3:53 AM 55.9 °F 46.0 °F 69% 29.95 in 10.0 mi SSW 4.6 mph - N/A   Clear
4:53 AM 55.0 °F 45.0 °F 69% 29.95 in 10.0 mi Variable 5.8 mph - N/A   Clear
5:53 AM 54.0 °F 45.0 °F 72% 29.95 in 10.0 mi South 4.6 mph - N/A   Clear
6:53 AM 53.1 °F 45.0 °F 74% 29.96 in 10.0 mi South 3.5 mph - N/A   Clear
7:53 AM 54.0 °F 46.0 °F 75% 29.98 in 10.0 mi South 3.5 mph - N/A   Clear
8:53 AM 57.0 °F 46.9 °F 69% 29.99 in 10.0 mi Calm Calm - N/A   Clear
9:53 AM 62.1 °F 46.9 °F 58% 30.00 in 10.0 mi Calm Calm - N/A   Clear
10:53 AM 64.9 °F 46.9 °F 52% 30.00 in 10.0 mi South 3.5 mph - N/A   Clear
11:53 AM 68.0 °F 48.0 °F 49% 29.99 in 10.0 mi Variable 3.5 mph - N/A   Clear
12:53 PM 72.0 °F 48.9 °F 44% 29.98 in 10.0 mi WSW 6.9 mph - N/A   Clear
1:53 PM 73.0 °F 39.9 °F 30% 29.95 in 10.0 mi Variable 5.8 mph - N/A   Clear
2:53 PM 75.9 °F 44.1 °F 32% 29.94 in 10.0 mi Variable 4.6 mph - N/A   Clear
3:53 PM 77.0 °F 43.0 °F 30% 29.93 in 10.0 mi NW 5.8 mph - N/A   Clear
4:53 PM 77.0 °F 46.0 °F 33% 29.91 in 10.0 mi NNW 9.2 mph - N/A   Clear
5:53 PM 75.0 °F 41.0 °F 29% 29.90 in 10.0 mi NNW 4.6 mph - N/A   Clear
6:53 PM 72.0 °F 41.0 °F 33% 29.90 in 10.0 mi NW 3.5 mph - N/A   Clear
7:53 PM 63.0 °F 46.0 °F 54% 29.90 in 10.0 mi Calm Calm - N/A   Clear
8:53 PM 62.1 °F 46.9 °F 58% 29.91 in 10.0 mi Calm Calm - N/A   Clear
9:53 PM 59.0 °F 46.9 °F 64% 29.91 in 10.0 mi SW 3.5 mph - N/A   Clear
10:53 PM 59.0 °F 48.9 °F 69% 29.91 in 10.0 mi Calm Calm - N/A   Clear
11:53 PM 57.0 °F 48.9 °F 74% 29.92 in 10.0 mi Calm Calm - N/A   Clear